When you browse on this site, cookies collect data to enhance your experience and personalize the content and advertising you see.
Visit our Privacy Policy to learn more. By continuing to use the site, you agree to this use of cookies and data.
  • In Österreich
  • Länderverzeichnis
  • Für 7 Tage
  • Wassertemperatur
  • Wetterkarte
  • News
  • Widgets
  • user-avatar
    Anmelden

    Stündliche Wetter Zorya

    Heute, 19 August, Montag

    Zeit Temperatur Niederschläge Wind Luftdruck Luftfeuchtigkeit
    00:00 +21°C° 0 mm 3 m/S 758 mmHg 61%
    01:00 +21°C° 0 mm 3 m/S 758 mmHg 63%
    02:00 +20°C° 0 mm 3 m/S 759 mmHg 65%
    03:00 +20°C° 0 mm 3 m/S 759 mmHg 68%
    04:00 +19°C° 0 mm 3 m/S 759 mmHg 70%
    05:00 +19°C° 0 mm 3 m/S 759 mmHg 73%
    06:00 +21°C° 0 mm 3 m/S 759 mmHg 67%
    07:00 +22°C° 0 mm 4 m/S 760 mmHg 62%
    08:00 +25°C° 0 mm 4 m/S 760 mmHg 56%
    09:00 +26°C° 0 mm 4 m/S 760 mmHg 52%
    10:00 +27°C° 0 mm 4 m/S 760 mmHg 48%
    11:00 +28°C° 0 mm 4 m/S 760 mmHg 44%
    12:00 +28°C° 0 mm 4 m/S 760 mmHg 42%
    13:00 +29°C° 0 mm 4 m/S 760 mmHg 41%
    14:00 +29°C° 0 mm 4 m/S 760 mmHg 39%
    15:00 +29°C° 0 mm 3 m/S 759 mmHg 41%
    16:00 +28°C° 0 mm 3 m/S 759 mmHg 42%
    17:00 +28°C° 0 mm 3 m/S 759 mmHg 44%
    18:00 +27°C° 0 mm 2 m/S 759 mmHg 46%
    19:00 +26°C° 0 mm 2 m/S 760 mmHg 49%
    20:00 +26°C° 0 mm 1 m/S 760 mmHg 51%
    21:00 +25°C° 0 mm 2 m/S 760 mmHg 53%
    22:00 +25°C° 0 mm 2 m/S 760 mmHg 55%
    23:00 +25°C° 0 mm 3 m/S 760 mmHg 57%

    Morgen, 20 August, Dienstag

    Zeit Temperatur Niederschläge Wind Luftdruck Luftfeuchtigkeit
    00:00 +24°C° 0 mm 3 m/S 760 mmHg 59%
    01:00 +23°C° 0 mm 4 m/S 760 mmHg 61%
    02:00 +23°C° 0 mm 4 m/S 760 mmHg 63%
    03:00 +22°C° 0 mm 4 m/S 760 mmHg 68%
    04:00 +22°C° 0 mm 4 m/S 760 mmHg 73%
    05:00 +21°C° 0 mm 4 m/S 760 mmHg 78%
    06:00 +23°C° 0.1 mm 4 m/S 760 mmHg 74%
    07:00 +25°C° 0.1 mm 4 m/S 760 mmHg 71%
    08:00 +26°C° 0.1 mm 5 m/S 761 mmHg 67%
    09:00 +28°C° 0 mm 4 m/S 761 mmHg 62%
    10:00 +29°C° 0 mm 4 m/S 760 mmHg 57%
    11:00 +32°C° 0 mm 4 m/S 760 mmHg 53%
    12:00 +32°C° 0 mm 4 m/S 760 mmHg 51%
    13:00 +33°C° 0 mm 4 m/S 760 mmHg 50%
    14:00 +33°C° 0 mm 4 m/S 760 mmHg 49%
    15:00 +33°C° 0 mm 4 m/S 760 mmHg 49%
    16:00 +33°C° 0 mm 3 m/S 759 mmHg 49%
    17:00 +33°C° 0 mm 3 m/S 759 mmHg 49%
    18:00 +31°C° 0.3 mm 3 m/S 759 mmHg 52%
    19:00 +29°C° 0.3 mm 3 m/S 760 mmHg 56%
    20:00 +28°C° 0.3 mm 3 m/S 760 mmHg 60%
    21:00 +28°C° 0.4 mm 3 m/S 760 mmHg 62%
    22:00 +27°C° 0.4 mm 4 m/S 760 mmHg 64%
    23:00 +27°C° 0.4 mm 4 m/S 760 mmHg 67%

    übermorgen, 21 August, Mittwoch

    Zeit Temperatur Niederschläge Wind Luftdruck Luftfeuchtigkeit
    00:00 +26°C° 0.4 mm 5 m/S 760 mmHg 68%
    01:00 +26°C° 0.4 mm 5 m/S 760 mmHg 69%
    02:00 +26°C° 0.4 mm 6 m/S 760 mmHg 71%
    03:00 +25°C° 0 mm 5 m/S 759 mmHg 73%
    04:00 +25°C° 0 mm 5 m/S 759 mmHg 74%
    05:00 +23°C° 0 mm 5 m/S 759 mmHg 76%
    06:00 +26°C° 0 mm 6 m/S 759 mmHg 71%
    07:00 +27°C° 0 mm 6 m/S 759 mmHg 66%
    08:00 +28°C° 0 mm 7 m/S 759 mmHg 61%
    09:00 +30°C° 0 mm 6 m/S 759 mmHg 55%
    10:00 +32°C° 0 mm 6 m/S 759 mmHg 49%
    11:00 +34°C° 0 mm 6 m/S 758 mmHg 43%
    12:00 +35°C° 0 mm 5 m/S 758 mmHg 39%
    13:00 +36°C° 0 mm 5 m/S 758 mmHg 34%
    14:00 +39°C° 0 mm 5 m/S 757 mmHg 29%
    15:00 +37°C° 0 mm 5 m/S 757 mmHg 29%
    16:00 +37°C° 0 mm 5 m/S 757 mmHg 29%
    17:00 +36°C° 0 mm 5 m/S 757 mmHg 29%
    18:00 +34°C° 0 mm 5 m/S 757 mmHg 32%
    19:00 +32°C° 0 mm 4 m/S 757 mmHg 36%
    20:00 +29°C° 0 mm 3 m/S 757 mmHg 39%
    21:00 +29°C° 0 mm 3 m/S 757 mmHg 42%
    22:00 +28°C° 0 mm 4 m/S 757 mmHg 45%
    23:00 +27°C° 0 mm 4 m/S 757 mmHg 48%

    22 August, Donnerstag

    Zeit Temperatur Niederschläge Wind Luftdruck Luftfeuchtigkeit
    00:00 +27°C° 0 mm 4 m/S 757 mmHg 52%
    01:00 +27°C° 0 mm 4 m/S 757 mmHg 55%
    02:00 +26°C° 0 mm 4 m/S 757 mmHg 58%
    03:00 +26°C° 0 mm 4 m/S 757 mmHg 58%
    04:00 +25°C° 0 mm 4 m/S 757 mmHg 57%
    05:00 +25°C° 0 mm 4 m/S 757 mmHg 56%
    06:00 +27°C° 0 mm 4 m/S 757 mmHg 50%
    07:00 +29°C° 0 mm 4 m/S 757 mmHg 45%
    08:00 +30°C° 0 mm 4 m/S 757 mmHg 39%
    09:00 +33°C° 0 mm 4 m/S 757 mmHg 34%
    10:00 +35°C° 0 mm 4 m/S 757 mmHg 30%
    11:00 +37°C° 0 mm 4 m/S 757 mmHg 26%
    12:00 +38°C° 0 mm 4 m/S 757 mmHg 24%
    13:00 +40°C° 0 mm 4 m/S 757 mmHg 22%
    14:00 +41°C° 0 mm 4 m/S 757 mmHg 20%
    15:00 +40°C° 0 mm 4 m/S 757 mmHg 21%
    16:00 +40°C° 0 mm 5 m/S 757 mmHg 22%
    17:00 +39°C° 0 mm 5 m/S 757 mmHg 23%
    18:00 +36°C° 0 mm 4 m/S 757 mmHg 26%
    19:00 +34°C° 0 mm 4 m/S 757 mmHg 30%
    20:00 +31°C° 0 mm 3 m/S 758 mmHg 33%
    21:00 +30°C° 0 mm 3 m/S 758 mmHg 37%
    22:00 +29°C° 0 mm 3 m/S 758 mmHg 40%
    23:00 +29°C° 0 mm 3 m/S 758 mmHg 44%

    23 August, Freitag

    Zeit Temperatur Niederschläge Wind Luftdruck Luftfeuchtigkeit
    00:00 +28°C° 0 mm 4 m/S 758 mmHg 46%
    01:00 +28°C° 0 mm 4 m/S 758 mmHg 49%
    02:00 +27°C° 0 mm 4 m/S 758 mmHg 52%
    03:00 +27°C° 0 mm 4 m/S 758 mmHg 53%
    04:00 +26°C° 0 mm 4 m/S 758 mmHg 55%
    05:00 +26°C° 0 mm 4 m/S 758 mmHg 56%
    06:00 +28°C° 0 mm 4 m/S 758 mmHg 51%
    07:00 +29°C° 0 mm 4 m/S 758 mmHg 46%
    08:00 +32°C° 0 mm 4 m/S 759 mmHg 40%
    09:00 +33°C° 0 mm 4 m/S 759 mmHg 37%
    10:00 +35°C° 0 mm 4 m/S 759 mmHg 33%
    11:00 +37°C° 0 mm 4 m/S 759 mmHg 29%
    12:00 +37°C° 0 mm 4 m/S 758 mmHg 28%
    13:00 +39°C° 0 mm 5 m/S 758 mmHg 27%
    14:00 +39°C° 0 mm 5 m/S 758 mmHg 25%
    15:00 +39°C° 0 mm 5 m/S 758 mmHg 26%
    16:00 +37°C° 0 mm 5 m/S 758 mmHg 27%
    17:00 +37°C° 0 mm 5 m/S 758 mmHg 27%
    18:00 +35°C° 0.2 mm 5 m/S 758 mmHg 32%
    19:00 +33°C° 0.2 mm 4 m/S 758 mmHg 37%
    20:00 +30°C° 0.2 mm 4 m/S 758 mmHg 42%
    21:00 +29°C° 0.4 mm 3 m/S 758 mmHg 45%
    22:00 +28°C° 0.4 mm 3 m/S 759 mmHg 49%
    23:00 +28°C° 0.4 mm 3 m/S 759 mmHg 52%

    24 August, Samstag

    Zeit Temperatur Niederschläge Wind Luftdruck Luftfeuchtigkeit
    00:00 +27°C° 0 mm 3 m/S 759 mmHg 54%
    01:00 +27°C° 0 mm 3 m/S 759 mmHg 57%
    02:00 +26°C° 0 mm 4 m/S 759 mmHg 59%
    03:00 +26°C° 0 mm 4 m/S 759 mmHg 64%
    04:00 +25°C° 0 mm 5 m/S 759 mmHg 70%
    05:00 +25°C° 0 mm 5 m/S 759 mmHg 75%
    06:00 +26°C° 0 mm 6 m/S 759 mmHg 72%
    07:00 +27°C° 0 mm 6 m/S 760 mmHg 69%
    08:00 +28°C° 0 mm 7 m/S 760 mmHg 65%
    09:00 +29°C° 0 mm 7 m/S 760 mmHg 61%
    10:00 +30°C° 0 mm 7 m/S 760 mmHg 56%
    11:00 +32°C° 0 mm 7 m/S 760 mmHg 51%
    12:00 +33°C° 0 mm 7 m/S 760 mmHg 48%
    13:00 +33°C° 0 mm 7 m/S 760 mmHg 45%
    14:00 +34°C° 0 mm 7 m/S 760 mmHg 42%
    15:00 +33°C° 0 mm 7 m/S 760 mmHg 41%
    16:00 +33°C° 0 mm 7 m/S 760 mmHg 39%
    17:00 +32°C° 0 mm 8 m/S 760 mmHg 38%
    18:00 +30°C° 0 mm 7 m/S 761 mmHg 40%
    19:00 +28°C° 0 mm 7 m/S 761 mmHg 43%
    20:00 +26°C° 0 mm 7 m/S 761 mmHg 45%
    21:00 +24°C° 0 mm 7 m/S 762 mmHg 47%
    22:00 +23°C° 0 mm 8 m/S 762 mmHg 50%
    23:00 +22°C° 0 mm 8 m/S 763 mmHg 52%
    Mehr zeigen